Check out our new BloomSky Weather System.

Active alerts


No alerts


Thunder radar  blitzortung!


Rain radar more information rain snow radar


Visit our other weather sites:

Template documentation
and downloads

And another site



Weather Underground History page Text

Daily Summary for January 29, 2017 Units:  English    Metric   Both
« Previous Day
Next Day »
Daily Weekly Monthly Yearly Custom
  High: Low: Average:
Temperature: 67.3 °F 37.9 °F 51.8 °F
Dew Point: 39.0 °F 31.1 °F 34.4 °F
Humidity: 78 % 30 % 55 %
Wind Speed: 17.0 mph 0.0 mph 1.9 mph
Wind Gust: 18.0 mph - -
Wind:- - WNW
Pressure: 30.32 in 30.21 in -
Precipitation: 0.00 in    
Historical Graphs
 
 
Tabular Data for January 29, 2017
Time Temperature Dew Point Pressure Wind Wind Speed Wind Gust Humidity Rainfall Rate (Hourly)
00:02 42.3 °F 32.2 °F 30.27 in Calm   1.0 mph 67 % 0.00 in
00:07 42.3 °F 32.2 °F 30.27 in Calm   1.0 mph 67 % 0.00 in
00:12 41.9 °F 31.8 °F 30.27 in Calm   1.0 mph 67 % 0.00 in
00:17 41.7 °F 31.6 °F 30.27 in Calm   1.0 mph 67 % 0.00 in
00:22 41.5 °F 31.8 °F 30.27 in Calm   1.0 mph 68 % 0.00 in
00:27 41.7 °F 31.6 °F 30.27 in Calm   1.0 mph 67 % 0.00 in
00:32 41.5 °F 31.8 °F 30.27 in Calm   1.0 mph 68 % 0.00 in
00:37 41.5 °F 31.8 °F 30.27 in Calm   1.0 mph 68 % 0.00 in
00:42 41.2 °F 31.5 °F 30.27 in Calm   1.0 mph 68 % 0.00 in
00:47 41.0 °F 31.6 °F 30.27 in Calm   1.0 mph 69 % 0.00 in
00:52 40.8 °F 31.8 °F 30.27 in Calm     70 % 0.00 in
00:57 40.6 °F 31.6 °F 30.27 in Calm     70 % 0.00 in
01:02 40.5 °F 31.5 °F 30.27 in Calm     70 % 0.00 in
01:07 40.5 °F 31.5 °F 30.27 in Calm     70 % 0.00 in
01:12 40.5 °F 31.5 °F 30.27 in Calm     70 % 0.00 in
01:17 40.3 °F 31.6 °F 30.26 in Calm     71 % 0.00 in
01:22 40.3 °F 31.6 °F 30.26 in Calm     71 % 0.00 in
01:27 40.5 °F 31.8 °F 30.26 in Calm     71 % 0.00 in
01:32 40.5 °F 32.2 °F 30.26 in Calm   1.0 mph 72 % 0.00 in
01:37 40.1 °F 31.5 °F 30.26 in Calm   1.0 mph 71 % 0.00 in
01:42 39.9 °F 31.6 °F 30.26 in Calm   1.0 mph 72 % 0.00 in
01:47 39.9 °F 32.0 °F 30.27 in Calm   1.0 mph 73 % 0.00 in
01:52 39.9 °F 31.6 °F 30.27 in Calm   1.0 mph 72 % 0.00 in
01:57 39.9 °F 31.6 °F 30.27 in Calm   1.0 mph 72 % 0.00 in
02:02 39.7 °F 31.5 °F 30.27 in Calm   1.0 mph 72 % 0.00 in
02:07 39.6 °F 31.3 °F 30.27 in Calm   1.0 mph 72 % 0.00 in
02:12 39.4 °F 31.5 °F 30.27 in Calm   1.0 mph 73 % 0.00 in
02:17 39.4 °F 31.5 °F 30.26 in Calm   1.0 mph 73 % 0.00 in
02:22 39.2 °F 31.3 °F 30.26 in Calm   1.0 mph 73 % 0.00 in
02:27 39.4 °F 31.5 °F 30.26 in Calm   1.0 mph 73 % 0.00 in
02:32 39.4 °F 31.5 °F 30.26 in Calm   1.0 mph 73 % 0.00 in
02:37 39.2 °F 31.3 °F 30.26 in Calm   1.0 mph 73 % 0.00 in
02:42 39.0 °F 31.5 °F 30.26 in Calm     74 % 0.00 in
02:47 39.0 °F 31.5 °F 30.26 in Calm     74 % 0.00 in
02:52 39.0 °F 31.5 °F 30.25 in Calm   1.0 mph 74 % 0.00 in
03:07 38.8 °F 31.6 °F 30.25 in Calm   1.0 mph 75 % 0.00 in
03:12 38.8 °F 31.6 °F 30.25 in Calm   1.0 mph 75 % 0.00 in
03:17 38.8 °F 31.6 °F 30.25 in Calm   1.0 mph 75 % 0.00 in
03:22 38.8 °F 31.3 °F 30.25 in Calm   1.0 mph 74 % 0.00 in
03:27 38.5 °F 31.3 °F 30.25 in Calm   1.0 mph 75 % 0.00 in
03:32 38.3 °F 31.5 °F 30.25 in Calm     76 % 0.00 in
03:37 37.9 °F 31.1 °F 30.25 in Calm     76 % 0.00 in
03:42 37.9 °F 31.5 °F 30.25 in Calm     77 % 0.00 in
03:47 38.1 °F 31.3 °F 30.25 in Calm     76 % 0.00 in
03:52 38.1 °F 31.6 °F 30.25 in Calm     77 % 0.00 in
03:57 38.1 °F 31.6 °F 30.25 in Calm   1.0 mph 77 % 0.00 in
04:02 38.1 °F 31.6 °F 30.25 in Calm   1.0 mph 77 % 0.00 in
04:07 37.9 °F 31.5 °F 30.25 in Calm   1.0 mph 77 % 0.00 in
04:12 37.9 °F 31.5 °F 30.25 in Calm   1.0 mph 77 % 0.00 in
04:17 38.1 °F 31.8 °F 30.25 in Calm   1.0 mph 78 % 0.00 in
04:22 38.3 °F 32.0 °F 30.25 in Calm   1.0 mph 78 % 0.00 in
04:27 38.5 °F 32.2 °F 30.25 in Calm   1.0 mph 78 % 0.00 in
04:37 38.5 °F 31.8 °F 30.25 in Calm   1.0 mph 77 % 0.00 in
04:42 38.5 °F 31.8 °F 30.25 in Calm   1.0 mph 77 % 0.00 in
04:47 38.5 °F 31.8 °F 30.25 in Calm   1.0 mph 77 % 0.00 in
04:52 38.3 °F 31.6 °F 30.25 in Calm   1.0 mph 77 % 0.00 in
04:57 38.5 °F 31.8 °F 30.25 in Calm   1.0 mph 77 % 0.00 in
05:02 38.5 °F 31.8 °F 30.25 in Calm   1.0 mph 77 % 0.00 in
05:07 38.7 °F 32.0 °F 30.25 in Calm   1.0 mph 77 % 0.00 in
05:12 38.7 °F 31.8 °F 30.26 in Calm   1.0 mph 76 % 0.00 in
05:17 38.7 °F 31.8 °F 30.26 in Calm   1.0 mph 76 % 0.00 in
05:22 38.7 °F 31.8 °F 30.26 in Calm   1.0 mph 76 % 0.00 in
05:27 39.0 °F 32.2 °F 30.27 in Calm   1.0 mph 76 % 0.00 in
05:32 39.0 °F 32.2 °F 30.27 in Calm   2.0 mph 76 % 0.00 in
05:37 39.0 °F 32.2 °F 30.27 in Calm   2.0 mph 76 % 0.00 in
05:42 39.0 °F 32.2 °F 30.26 in Calm   2.0 mph 76 % 0.00 in
05:47 39.0 °F 32.2 °F 30.27 in SW 1.0 mph 2.0 mph 76 % 0.00 in
05:52 39.0 °F 32.2 °F 30.27 in Calm   2.0 mph 76 % 0.00 in
05:57 38.8 °F 32.0 °F 30.27 in Calm   1.0 mph 76 % 0.00 in
06:02 38.7 °F 31.8 °F 30.27 in Calm   1.0 mph 76 % 0.00 in
06:07 38.7 °F 32.0 °F 30.27 in Calm   1.0 mph 77 % 0.00 in
06:12 38.5 °F 31.6 °F 30.27 in Calm   1.0 mph 76 % 0.00 in
06:18 38.5 °F 31.6 °F 30.27 in Calm   1.0 mph 76 % 0.00 in
06:22 38.3 °F 31.5 °F 30.27 in Calm   1.0 mph 76 % 0.00 in
06:28 38.5 °F 31.6 °F 30.27 in Calm   1.0 mph 76 % 0.00 in
06:33 38.5 °F 31.6 °F 30.27 in Calm   1.0 mph 76 % 0.00 in
06:38 38.5 °F 31.6 °F 30.27 in Calm   1.0 mph 76 % 0.00 in
06:43 38.7 °F 31.8 °F 30.28 in Calm   1.0 mph 76 % 0.00 in
06:53 39.0 °F 31.8 °F 30.28 in Calm   1.0 mph 75 % 0.00 in
06:58 39.0 °F 31.8 °F 30.28 in Calm   1.0 mph 75 % 0.00 in
07:03 39.0 °F 31.8 °F 30.28 in Calm   2.0 mph 75 % 0.00 in
07:08 39.4 °F 31.8 °F 30.29 in Calm   2.0 mph 74 % 0.00 in
07:13 39.6 °F 32.0 °F 30.29 in Calm   2.0 mph 74 % 0.00 in
07:18 39.6 °F 32.0 °F 30.29 in Calm   2.0 mph 74 % 0.00 in
07:23 39.6 °F 32.0 °F 30.29 in Calm   2.0 mph 74 % 0.00 in
07:28 39.6 °F 32.0 °F 30.28 in Calm   2.0 mph 74 % 0.00 in
07:33 39.6 °F 32.0 °F 30.29 in Calm   1.0 mph 74 % 0.00 in
07:43 39.9 °F 32.4 °F 30.28 in SW 1.0 mph 1.0 mph 74 % 0.00 in
07:48 40.5 °F 32.9 °F 30.28 in Calm   1.0 mph 74 % 0.00 in
07:53 41.2 °F 33.4 °F 30.28 in Calm   1.0 mph 74 % 0.00 in
07:58 42.1 °F 34.0 °F 30.28 in Calm   2.0 mph 73 % 0.00 in
08:08 44.1 °F 34.5 °F 30.28 in Calm   3.0 mph 69 % 0.00 in
08:13 44.8 °F 34.5 °F 30.29 in Calm   3.0 mph 67 % 0.00 in
08:18 45.3 °F 34.7 °F 30.29 in West 1.0 mph 3.0 mph 66 % 0.00 in
08:23 45.9 °F 34.7 °F 30.29 in Calm   4.0 mph 65 % 0.00 in
08:28 46.2 °F 35.1 °F 30.29 in West 1.0 mph 4.0 mph 65 % 0.00 in
08:33 46.6 °F 35.1 °F 30.29 in West 3.0 mph 6.0 mph 64 % 0.00 in
08:38 47.1 °F 36.0 °F 30.30 in WSW 4.0 mph 6.0 mph 65 % 0.00 in
08:43 47.8 °F 35.8 °F 30.30 in Calm   6.0 mph 63 % 0.00 in
08:48 48.2 °F 35.8 °F 30.30 in Calm   6.0 mph 62 % 0.00 in
08:53 48.7 °F 36.3 °F 30.30 in WSW 1.0 mph 6.0 mph 62 % 0.00 in
08:58 49.1 °F 35.8 °F 30.30 in WSW 1.0 mph 6.0 mph 60 % 0.00 in
09:03 49.6 °F 35.1 °F 30.30 in West 5.0 mph 6.0 mph 57 % 0.00 in
09:09 50.2 °F 36.3 °F 30.30 in WSW 1.0 mph 6.0 mph 59 % 0.00 in
09:14 50.9 °F 36.1 °F 30.30 in SW 2.0 mph 6.0 mph 57 % 0.00 in
09:19 51.4 °F 36.3 °F 30.31 in NNW 1.0 mph 6.0 mph 56 % 0.00 in
09:24 52.2 °F 36.5 °F 30.31 in West 4.0 mph 5.0 mph 55 % 0.00 in
09:29 52.5 °F 34.9 °F 30.31 in Calm   5.0 mph 51 % 0.00 in
09:34 53.2 °F 34.5 °F 30.31 in West 5.0 mph 8.0 mph 49 % 0.00 in
09:39 53.6 °F 34.9 °F 30.31 in Calm   8.0 mph 49 % 0.00 in
09:44 54.1 °F 34.9 °F 30.31 in NW 2.0 mph 8.0 mph 48 % 0.00 in
09:49 54.3 °F 34.0 °F 30.31 in NNE 4.0 mph 7.0 mph 46 % 0.00 in
09:54 54.9 °F 34.5 °F 30.31 in WNW 1.0 mph 8.0 mph 46 % 0.00 in
09:59 55.8 °F 34.7 °F 30.32 in NNW 3.0 mph 8.0 mph 45 % 0.00 in
10:04 56.3 °F 34.7 °F 30.32 in SSW 2.0 mph 8.0 mph 44 % 0.00 in
10:09 56.7 °F 34.3 °F 30.32 in NNW 3.0 mph 8.0 mph 43 % 0.00 in
10:14 56.7 °F 33.8 °F 30.32 in NW 3.0 mph 8.0 mph 42 % 0.00 in
10:19 56.8 °F 34.0 °F 30.32 in NW 5.0 mph 9.0 mph 42 % 0.00 in
10:24 57.0 °F 33.6 °F 30.32 in NW 3.0 mph 9.0 mph 41 % 0.00 in
10:29 57.6 °F 33.4 °F 30.32 in NW 5.0 mph 10.0 mph 40 % 0.00 in
10:34 57.9 °F 33.8 °F 30.32 in North 2.0 mph 10.0 mph 40 % 0.00 in
10:39 58.6 °F 34.3 °F 30.32 in WNW 4.0 mph 10.0 mph 40 % 0.00 in
10:44 59.2 °F 34.2 °F 30.32 in NNW 3.0 mph 8.0 mph 39 % 0.00 in
10:49 59.7 °F 34.7 °F 30.32 in WNW 1.0 mph 8.0 mph 39 % 0.00 in
10:54 60.4 °F 34.7 °F 30.31 in ESE 1.0 mph 8.0 mph 38 % 0.00 in
10:59 60.4 °F 33.4 °F 30.31 in West 4.0 mph 8.0 mph 36 % 0.00 in
11:04 60.4 °F 33.4 °F 30.31 in NNW 8.0 mph 10.0 mph 36 % 0.00 in
11:19 61.5 °F 35.1 °F 30.30 in WSW 1.0 mph 10.0 mph 37 % 0.00 in
11:34 62.2 °F 33.4 °F 30.29 in NNW 4.0 mph 12.0 mph 34 % 0.00 in
11:39 62.6 °F 34.5 °F 30.29 in North 5.0 mph 12.0 mph 35 % 0.00 in
11:44 62.8 °F 33.3 °F 30.29 in NE 1.0 mph 11.0 mph 33 % 0.00 in
11:49 63.0 °F 33.4 °F 30.29 in ENE 2.0 mph 11.0 mph 33 % 0.00 in
11:54 63.3 °F 32.2 °F 30.28 in North 5.0 mph 11.0 mph 31 % 0.00 in
12:00 63.1 °F 32.7 °F 30.29 in NW 8.0 mph 11.0 mph 32 % 0.00 in
12:05 63.7 °F 33.3 °F 30.28 in WNW 9.0 mph 12.0 mph 32 % 0.00 in
12:10 63.1 °F 32.7 °F 30.28 in NW 8.0 mph 12.0 mph 32 % 0.00 in
12:15 63.1 °F 33.6 °F 30.28 in NW 4.0 mph 13.0 mph 33 % 0.00 in
12:20 63.5 °F 33.8 °F 30.28 in WNW 4.0 mph 16.0 mph 33 % 0.00 in
12:25 63.9 °F 34.2 °F 30.28 in WNW 4.0 mph 16.0 mph 33 % 0.00 in
12:30 63.7 °F 34.0 °F 30.27 in NW 9.0 mph 15.0 mph 33 % 0.00 in
12:35 63.9 °F 34.2 °F 30.27 in NW 9.0 mph 15.0 mph 33 % 0.00 in
12:40 64.2 °F 35.2 °F 30.26 in NW 9.0 mph 12.0 mph 34 % 0.00 in
12:50 64.6 °F 34.0 °F 30.26 in North 4.0 mph 13.0 mph 32 % 0.00 in
12:55 64.9 °F 34.3 °F 30.25 in NW 2.0 mph 13.0 mph 32 % 0.00 in
13:00 65.1 °F 33.8 °F 30.25 in NNW 4.0 mph 13.0 mph 31 % 0.00 in
13:05 65.1 °F 33.8 °F 30.25 in NNE 4.0 mph 13.0 mph 31 % 0.00 in
13:10 65.5 °F 34.0 °F 30.25 in West 4.0 mph 13.0 mph 31 % 0.00 in
13:15 65.5 °F 33.3 °F 30.24 in NW 4.0 mph 15.0 mph 30 % 0.00 in
13:20 64.9 °F 33.6 °F 30.24 in NW 4.0 mph 15.0 mph 31 % 0.00 in
13:25 65.5 °F 34.0 °F 30.24 in NW 4.0 mph 15.0 mph 31 % 0.00 in
13:30 65.8 °F 33.6 °F 30.24 in WNW 4.0 mph 15.0 mph 30 % 0.00 in
13:35 65.7 °F 33.4 °F 30.23 in NW 2.0 mph 14.0 mph 30 % 0.00 in
13:40 66.0 °F 34.5 °F 30.23 in WNW 2.0 mph 14.0 mph 31 % 0.00 in
13:45 66.4 °F 34.0 °F 30.23 in NNW 8.0 mph 12.0 mph 30 % 0.00 in
13:50 66.2 °F 34.7 °F 30.23 in NNW 10.0 mph 15.0 mph 31 % 0.00 in
13:55 66.0 °F 34.5 °F 30.23 in NW 8.0 mph 15.0 mph 31 % 0.00 in
14:00 66.0 °F 34.5 °F 30.23 in NW 11.0 mph 18.0 mph 31 % 0.00 in
14:05 65.8 °F 34.3 °F 30.22 in NW 7.0 mph 18.0 mph 31 % 0.00 in
14:10 65.8 °F 34.3 °F 30.22 in NNW 5.0 mph 18.0 mph 31 % 0.00 in
14:15 65.8 °F 35.2 °F 30.22 in NW 3.0 mph 14.0 mph 32 % 0.00 in
14:20 66.0 °F 35.2 °F 30.22 in WNW 10.0 mph 14.0 mph 32 % 0.00 in
14:25 65.8 °F 35.2 °F 30.22 in NW 5.0 mph 13.0 mph 32 % 0.00 in
14:30 66.2 °F 34.7 °F 30.22 in NNW 6.0 mph 13.0 mph 31 % 0.00 in
14:35 66.2 °F 34.7 °F 30.22 in West 10.0 mph 13.0 mph 31 % 0.00 in
14:40 66.4 °F 34.9 °F 30.22 in NW 6.0 mph 13.0 mph 31 % 0.00 in
14:45 66.4 °F 34.9 °F 30.22 in NW 17.0 mph 17.0 mph 31 % 0.00 in
14:51 65.8 °F 34.3 °F 30.22 in NW 9.0 mph 17.0 mph 31 % 0.00 in
14:56 65.8 °F 34.3 °F 30.21 in WNW 7.0 mph 18.0 mph 31 % 0.00 in
15:01 66.4 °F 35.6 °F 30.21 in NW 6.0 mph 18.0 mph 32 % 0.00 in
15:06 66.6 °F 35.8 °F 30.21 in NNW 9.0 mph 18.0 mph 32 % 0.00 in
15:16 66.9 °F 35.2 °F 30.21 in WNW 8.0 mph 14.0 mph 31 % 0.00 in
15:21 66.9 °F 35.2 °F 30.21 in WNW 13.0 mph 15.0 mph 31 % 0.00 in
15:26 66.9 °F 34.5 °F 30.21 in NNW 10.0 mph 15.0 mph 30 % 0.00 in
15:31 66.9 °F 35.2 °F 30.21 in WNW 3.0 mph 15.0 mph 31 % 0.00 in
15:36 67.3 °F 34.7 °F 30.21 in WNW 7.0 mph 15.0 mph 30 % 0.00 in
15:41 67.1 °F 34.7 °F 30.21 in NNW 7.0 mph 15.0 mph 30 % 0.00 in
15:46 67.1 °F 34.7 °F 30.21 in NNW 6.0 mph 13.0 mph 30 % 0.00 in
15:51 67.3 °F 35.6 °F 30.21 in North 4.0 mph 13.0 mph 31 % 0.00 in
15:56 67.3 °F 34.7 °F 30.21 in NW 3.0 mph 12.0 mph 30 % 0.00 in
16:01 67.3 °F 35.6 °F 30.21 in NNW 6.0 mph 13.0 mph 31 % 0.00 in
16:06 67.3 °F 34.7 °F 30.21 in West 4.0 mph 14.0 mph 30 % 0.00 in
16:11 67.3 °F 34.7 °F 30.21 in NNW 8.0 mph 14.0 mph 30 % 0.00 in
16:16 66.9 °F 35.2 °F 30.21 in WNW 5.0 mph 14.0 mph 31 % 0.00 in
16:21 66.9 °F 35.2 °F 30.21 in NNW 4.0 mph 14.0 mph 31 % 0.00 in
16:31 67.1 °F 35.4 °F 30.21 in West 7.0 mph 12.0 mph 31 % 0.00 in
16:36 67.3 °F 35.6 °F 30.21 in NW 6.0 mph 12.0 mph 31 % 0.00 in
16:41 67.3 °F 34.7 °F 30.22 in NNW 7.0 mph 10.0 mph 30 % 0.00 in
16:46 67.1 °F 35.4 °F 30.21 in WNW 6.0 mph 10.0 mph 31 % 0.00 in
16:51 67.1 °F 35.4 °F 30.21 in NW 7.0 mph 12.0 mph 31 % 0.00 in
16:56 66.9 °F 34.5 °F 30.22 in WNW 6.0 mph 12.0 mph 30 % 0.00 in
17:01 66.9 °F 35.2 °F 30.22 in North 5.0 mph 12.0 mph 31 % 0.00 in
17:06 66.7 °F 35.1 °F 30.22 in NNW 2.0 mph 10.0 mph 31 % 0.00 in
17:11 66.7 °F 35.1 °F 30.22 in NNW 4.0 mph 9.0 mph 31 % 0.00 in
17:16 66.7 °F 36.0 °F 30.22 in NW 5.0 mph 9.0 mph 32 % 0.00 in
17:21 66.6 °F 35.8 °F 30.22 in NW 2.0 mph 9.0 mph 32 % 0.00 in
17:26 66.2 °F 36.3 °F 30.22 in WNW 3.0 mph 9.0 mph 33 % 0.00 in
17:31 66.0 °F 36.1 °F 30.23 in NW 3.0 mph 8.0 mph 33 % 0.00 in
17:36 65.7 °F 36.5 °F 30.23 in Calm   5.0 mph 34 % 0.00 in
17:41 65.1 °F 36.9 °F 30.23 in Calm   5.0 mph 35 % 0.00 in
17:46 64.6 °F 36.3 °F 30.23 in WNW 2.0 mph 5.0 mph 35 % 0.00 in
17:51 64.0 °F 36.5 °F 30.23 in NW 2.0 mph 5.0 mph 36 % 0.00 in
17:56 63.7 °F 36.9 °F 30.23 in WSW 1.0 mph 5.0 mph 37 % 0.00 in
18:01 63.1 °F 37.0 °F 30.22 in SW 1.0 mph 5.0 mph 38 % 0.00 in
18:06 62.6 °F 36.7 °F 30.22 in Calm   3.0 mph 38 % 0.00 in
18:11 62.1 °F 36.9 °F 30.23 in Calm   2.0 mph 39 % 0.00 in
18:16 61.5 °F 37.0 °F 30.23 in Calm   2.0 mph 40 % 0.00 in
18:21 61.2 °F 36.7 °F 30.23 in Calm   2.0 mph 40 % 0.00 in
18:26 60.8 °F 36.9 °F 30.23 in Calm   2.0 mph 41 % 0.00 in
18:31 60.4 °F 36.7 °F 30.24 in Calm   2.0 mph 41 % 0.00 in
18:36 59.7 °F 36.5 °F 30.24 in Calm   2.0 mph 42 % 0.00 in
18:41 59.4 °F 36.9 °F 30.24 in Calm   2.0 mph 43 % 0.00 in
18:46 58.6 °F 36.9 °F 30.24 in Calm   2.0 mph 44 % 0.00 in
18:51 58.3 °F 37.0 °F 30.23 in Calm   2.0 mph 45 % 0.00 in
19:01 57.4 °F 36.7 °F 30.24 in Calm   1.0 mph 46 % 0.00 in
19:06 57.0 °F 37.0 °F 30.24 in Calm   1.0 mph 47 % 0.00 in
19:11 56.8 °F 36.9 °F 30.23 in Calm   1.0 mph 47 % 0.00 in
19:16 56.5 °F 37.0 °F 30.23 in Calm   1.0 mph 48 % 0.00 in
19:21 56.1 °F 36.7 °F 30.23 in Calm   1.0 mph 48 % 0.00 in
19:26 55.9 °F 37.0 °F 30.23 in Calm   1.0 mph 49 % 0.00 in
19:36 55.2 °F 36.3 °F 30.23 in Calm   1.0 mph 49 % 0.00 in
19:41 55.2 °F 36.9 °F 30.24 in Calm   1.0 mph 50 % 0.00 in
19:46 55.4 °F 37.0 °F 30.24 in Calm   1.0 mph 50 % 0.00 in
19:52 55.4 °F 37.0 °F 30.24 in Calm   1.0 mph 50 % 0.00 in
19:56 54.9 °F 37.0 °F 30.25 in Calm   1.0 mph 51 % 0.00 in
20:02 54.9 °F 37.0 °F 30.25 in Calm   1.0 mph 51 % 0.00 in
20:07 54.7 °F 37.4 °F 30.25 in Calm   1.0 mph 52 % 0.00 in
20:12 54.1 °F 36.9 °F 30.25 in Calm   1.0 mph 52 % 0.00 in
20:17 53.8 °F 37.0 °F 30.25 in Calm     53 % 0.00 in
20:22 53.6 °F 37.4 °F 30.25 in Calm     54 % 0.00 in
20:27 53.4 °F 37.6 °F 30.25 in Calm   1.0 mph 55 % 0.00 in
20:32 53.2 °F 37.4 °F 30.25 in SW 1.0 mph 1.0 mph 55 % 0.00 in
20:37 53.1 °F 37.4 °F 30.25 in Calm   1.0 mph 55 % 0.00 in
20:42 53.1 °F 37.4 °F 30.25 in Calm   1.0 mph 55 % 0.00 in
20:47 52.9 °F 37.6 °F 30.25 in Calm   1.0 mph 56 % 0.00 in
20:52 52.9 °F 37.6 °F 30.25 in Calm   1.0 mph 56 % 0.00 in
20:57 52.3 °F 37.0 °F 30.25 in Calm   1.0 mph 56 % 0.00 in
21:02 51.6 °F 36.5 °F 30.25 in Calm     56 % 0.00 in
21:07 50.9 °F 37.0 °F 30.25 in Calm     59 % 0.00 in
21:12 50.5 °F 37.2 °F 30.25 in Calm     60 % 0.00 in
21:17 50.4 °F 37.8 °F 30.25 in Calm     62 % 0.00 in
21:22 50.7 °F 37.8 °F 30.26 in Calm   1.0 mph 61 % 0.00 in
21:32 50.2 °F 36.9 °F 30.26 in Calm   1.0 mph 60 % 0.00 in
21:37 49.3 °F 36.0 °F 30.25 in Calm     60 % 0.00 in
21:43 48.6 °F 36.9 °F 30.26 in Calm     64 % 0.00 in
21:48 48.4 °F 37.2 °F 30.25 in Calm     65 % 0.00 in
21:53 48.0 °F 36.9 °F 30.26 in Calm     65 % 0.00 in
22:04 48.6 °F 37.8 °F 30.26 in Calm     66 % 0.00 in
22:09 48.7 °F 37.6 °F 30.26 in Calm     65 % 0.00 in
22:14 48.7 °F 38.3 °F 30.26 in Calm     67 % 0.00 in
22:19 48.7 °F 38.3 °F 30.26 in Calm     67 % 0.00 in
22:24 48.7 °F 38.3 °F 30.26 in Calm   1.0 mph 67 % 0.00 in
22:29 48.6 °F 38.1 °F 30.26 in Calm   1.0 mph 67 % 0.00 in
22:34 48.4 °F 38.3 °F 30.26 in Calm   1.0 mph 68 % 0.00 in
22:39 48.0 °F 37.6 °F 30.26 in Calm   1.0 mph 67 % 0.00 in
22:44 47.7 °F 37.6 °F 30.26 in Calm   1.0 mph 68 % 0.00 in
22:54 46.8 °F 37.6 °F 30.26 in Calm     70 % 0.00 in
22:59 46.4 °F 37.2 °F 30.26 in Calm     70 % 0.00 in
23:04 46.0 °F 37.2 °F 30.26 in Calm     71 % 0.00 in
23:09 46.2 °F 38.1 °F 30.26 in Calm     73 % 0.00 in
23:14 46.2 °F 37.8 °F 30.26 in Calm     72 % 0.00 in
23:29 46.6 °F 37.8 °F 30.25 in Calm     71 % 0.00 in
23:34 45.9 °F 37.0 °F 30.25 in Calm     71 % 0.00 in
23:39 45.7 °F 37.6 °F 30.25 in Calm     73 % 0.00 in
23:44 45.5 °F 37.4 °F 30.25 in Calm     73 % 0.00 in
23:49 45.7 °F 38.3 °F 30.25 in Calm     75 % 0.00 in
23:54 45.9 °F 39.0 °F 30.25 in Calm   1.0 mph 77 % 0.00 in
23:59 45.9 °F 38.7 °F 30.25 in Calm   1.0 mph 76 % 0.00 in
Spring, Texas: Villages of Bridgestone
Compliments of Weather Underground - 2.75 mb

Script developed by  Jim McMurry - jmcmurry@mwt.net Adapted for the template by  Wim van der Kuil - Leuven-Template.eu

You find our weather info also at:

UK Metoffice

WeatherCloud

Weather Underground

Mid-South Weather Network

AWEKAS

Citizen Weather Observer Program (CWOP)

HAMweather, WeatherForYou, PWS Weather

Equipment we use:

Weather-station
Davis Vantage Vue

Weather-program
Meteohub

Weather-server
Debian 7.9 x86 (Guest)

Provider
DreamHost

Davis Vantage Vue

Meteohub

Debian 7.9 x86 (Guest)

DreamHost